When you browse on this site, cookies collect data to enhance your experience and personalize the content and advertising you see.
Visit our Privacy Policy to learn more. By continuing to use the site, you agree to this use of cookies and data.
  • en Suisse
  • Liste des pays
  • À 7 jours
  • Température de l'eau
  • Carte satellitaire
  • Carte météo
  • Widgets météo
  • user-avatar
    Se connecter

    Météo par heure à Nottingham

    Ce jour, 13 Décembre, Jeudi

    Heure Température Précipitation Vent Pression Humidité
    00:00 0°C° 0 mm 5 m/s 757 mmHg 79%
    01:00 0°C° 0 mm 5 m/s 757 mmHg 80%
    02:00 0°C° 0 mm 5 m/s 757 mmHg 82%
    03:00 0°C° 0 mm 5 m/s 757 mmHg 83%
    04:00 -1°C° 0 mm 6 m/s 756 mmHg 83%
    05:00 -1°C° 0 mm 6 m/s 756 mmHg 83%
    06:00 -1°C° 0 mm 6 m/s 756 mmHg 82%
    07:00 -1°C° 0 mm 6 m/s 756 mmHg 82%
    08:00 -1°C° 0 mm 6 m/s 757 mmHg 81%
    09:00 0°C° 0 mm 5 m/s 757 mmHg 80%
    10:00 +1°C° 0 mm 6 m/s 757 mmHg 78%
    11:00 +2°C° 0 mm 6 m/s 757 mmHg 75%
    12:00 +3°C° 0 mm 6 m/s 757 mmHg 73%
    13:00 +2°C° 0 mm 6 m/s 757 mmHg 73%
    14:00 +2°C° 0 mm 5 m/s 757 mmHg 73%
    15:00 +2°C° 0 mm 5 m/s 758 mmHg 74%
    16:00 +2°C° 0 mm 5 m/s 758 mmHg 76%
    17:00 +1°C° 0 mm 4 m/s 758 mmHg 77%
    18:00 +1°C° 0 mm 4 m/s 759 mmHg 79%
    19:00 0°C° 0 mm 4 m/s 759 mmHg 81%
    20:00 0°C° 0 mm 4 m/s 759 mmHg 82%
    21:00 0°C° 0 mm 4 m/s 760 mmHg 84%
    22:00 0°C° 0 mm 3 m/s 760 mmHg 85%
    23:00 +1°C° 0 mm 2 m/s 761 mmHg 86%

    Demain, 14 Décembre, Vendredi

    Heure Température Précipitation Vent Pression Humidité
    00:00 +1°C° 0 mm 2 m/s 761 mmHg 87%
    01:00 +1°C° 0 mm 2 m/s 761 mmHg 87%
    02:00 -1°C° 0 mm 2 m/s 761 mmHg 86%
    03:00 -1°C° 0 mm 3 m/s 761 mmHg 86%
    04:00 -1°C° 0 mm 2 m/s 761 mmHg 86%
    05:00 -1°C° 0 mm 2 m/s 761 mmHg 86%
    06:00 -1°C° 0 mm 2 m/s 761 mmHg 86%
    07:00 -1°C° 0 mm 2 m/s 761 mmHg 85%
    08:00 -1°C° 0 mm 2 m/s 762 mmHg 84%
    09:00 +1°C° 0 mm 2 m/s 762 mmHg 84%
    10:00 +2°C° 0 mm 2 m/s 762 mmHg 78%
    11:00 +2°C° 0 mm 3 m/s 762 mmHg 73%
    12:00 +3°C° 0 mm 4 m/s 762 mmHg 68%
    13:00 +1°C° 0 mm 4 m/s 761 mmHg 70%
    14:00 +2°C° 0 mm 3 m/s 761 mmHg 71%
    15:00 +2°C° 0 mm 3 m/s 761 mmHg 73%
    16:00 +1°C° 0 mm 3 m/s 761 mmHg 76%
    17:00 0°C° 0 mm 3 m/s 761 mmHg 79%
    18:00 0°C° 0 mm 3 m/s 761 mmHg 83%
    19:00 0°C° 0 mm 3 m/s 761 mmHg 84%
    20:00 0°C° 0 mm 3 m/s 761 mmHg 84%
    21:00 -1°C° 0 mm 3 m/s 761 mmHg 85%
    22:00 0°C° 0 mm 3 m/s 760 mmHg 84%
    23:00 -1°C° 0 mm 4 m/s 760 mmHg 83%

    Après-demain, 15 Décembre, Samedi

    Heure Température Précipitation Vent Pression Humidité
    00:00 -1°C° 0 mm 4 m/s 760 mmHg 81%
    01:00 -1°C° 0 mm 4 m/s 760 mmHg 81%
    02:00 -1°C° 0 mm 4 m/s 759 mmHg 81%
    03:00 -2°C° 0 mm 4 m/s 759 mmHg 81%
    04:00 -1°C° 0 mm 5 m/s 758 mmHg 80%
    05:00 -1°C° 0 mm 5 m/s 758 mmHg 78%
    06:00 -1°C° 0 mm 5 m/s 757 mmHg 76%
    07:00 -2°C° 0 mm 6 m/s 757 mmHg 76%
    08:00 -2°C° 0 mm 7 m/s 756 mmHg 75%
    09:00 -1°C° 0 mm 7 m/s 756 mmHg 75%
    10:00 -1°C° 0 mm 8 m/s 755 mmHg 71%
    11:00 -1°C° 0 mm 8 m/s 754 mmHg 68%
    12:00 0°C° 0 mm 8 m/s 753 mmHg 64%
    13:00 0°C° 0.3 mm 8 m/s 752 mmHg 67%
    14:00 0°C° 0.3 mm 8 m/s 751 mmHg 70%
    15:00 0°C° 0.3 mm 8 m/s 750 mmHg 73%
    16:00 0°C° 0.3 mm 8 m/s 749 mmHg 77%
    17:00 0°C° 0.3 mm 9 m/s 748 mmHg 80%
    18:00 0°C° 0.3 mm 9 m/s 746 mmHg 83%
    19:00 +1°C° 1.3 mm 10 m/s 745 mmHg 85%
    20:00 +1°C° 1.3 mm 10 m/s 744 mmHg 88%
    21:00 +2°C° 1.3 mm 10 m/s 742 mmHg 90%
    22:00 +3°C° 0.8 mm 10 m/s 740 mmHg 89%
    23:00 +6°C° 0.8 mm 10 m/s 739 mmHg 88%

    16 Décembre, Dimanche

    Heure Température Précipitation Vent Pression Humidité
    00:00 +7°C° 0.8 mm 10 m/s 737 mmHg 88%
    01:00 +7°C° 0.1 mm 11 m/s 736 mmHg 84%
    02:00 +7°C° 0.1 mm 11 m/s 735 mmHg 81%
    03:00 +7°C° 0.1 mm 12 m/s 735 mmHg 77%
    04:00 +5°C° 0.2 mm 12 m/s 736 mmHg 75%
    05:00 +5°C° 0.2 mm 12 m/s 737 mmHg 72%
    06:00 +4°C° 0.2 mm 12 m/s 738 mmHg 70%
    07:00 +4°C° 0 mm 11 m/s 739 mmHg 70%
    08:00 +5°C° 0 mm 10 m/s 741 mmHg 69%
    09:00 +5°C° 0 mm 9 m/s 742 mmHg 69%
    10:00 +5°C° 0 mm 9 m/s 743 mmHg 68%
    11:00 +5°C° 0 mm 8 m/s 744 mmHg 67%
    12:00 +6°C° 0 mm 8 m/s 745 mmHg 66%
    13:00 +5°C° 0 mm 7 m/s 746 mmHg 69%
    14:00 +5°C° 0 mm 6 m/s 746 mmHg 71%
    15:00 +6°C° 0 mm 5 m/s 747 mmHg 73%
    16:00 +5°C° 0 mm 4 m/s 747 mmHg 77%
    17:00 +5°C° 0 mm 4 m/s 747 mmHg 82%
    18:00 +4°C° 0 mm 3 m/s 748 mmHg 86%
    19:00 +4°C° 0.1 mm 3 m/s 748 mmHg 88%
    20:00 +4°C° 0.1 mm 3 m/s 748 mmHg 90%
    21:00 +5°C° 0.1 mm 2 m/s 749 mmHg 91%
    22:00 +5°C° 0 mm 2 m/s 749 mmHg 92%
    23:00 +4°C° 0 mm 2 m/s 749 mmHg 92%

    17 Décembre, Lundi

    Heure Température Précipitation Vent Pression Humidité
    00:00 +4°C° 0 mm 2 m/s 750 mmHg 93%
    01:00 +4°C° 0 mm 2 m/s 750 mmHg 92%
    02:00 +3°C° 0 mm 2 m/s 750 mmHg 91%
    03:00 +3°C° 0 mm 2 m/s 750 mmHg 91%
    04:00 +3°C° 0 mm 2 m/s 751 mmHg 90%
    05:00 +3°C° 0 mm 2 m/s 751 mmHg 90%
    06:00 +3°C° 0 mm 2 m/s 751 mmHg 90%
    07:00 +3°C° 0 mm 2 m/s 752 mmHg 90%
    08:00 +3°C° 0 mm 2 m/s 752 mmHg 90%
    09:00 +2°C° 0 mm 2 m/s 753 mmHg 90%
    10:00 +3°C° 0 mm 3 m/s 753 mmHg 87%
    11:00 +4°C° 0 mm 3 m/s 753 mmHg 84%
    12:00 +5°C° 0 mm 3 m/s 753 mmHg 81%
    13:00 +5°C° 0 mm 3 m/s 753 mmHg 83%
    14:00 +4°C° 0 mm 3 m/s 753 mmHg 85%
    15:00 +4°C° 0 mm 3 m/s 753 mmHg 87%
    16:00 +4°C° 0 mm 3 m/s 753 mmHg 88%
    17:00 +4°C° 0 mm 4 m/s 753 mmHg 89%
    18:00 +4°C° 0 mm 4 m/s 753 mmHg 90%
    19:00 +3°C° 0 mm 5 m/s 752 mmHg 90%
    20:00 +4°C° 0 mm 6 m/s 752 mmHg 89%
    21:00 +4°C° 0 mm 7 m/s 751 mmHg 89%
    22:00 +5°C° 0.3 mm 7 m/s 750 mmHg 89%
    23:00 +6°C° 0.3 mm 8 m/s 750 mmHg 89%

    18 Décembre, Mardi

    Heure Température Précipitation Vent Pression Humidité
    00:00 +6°C° 0.3 mm 9 m/s 749 mmHg 88%
    01:00 +7°C° 0.2 mm 9 m/s 748 mmHg 88%
    02:00 +7°C° 0.2 mm 9 m/s 747 mmHg 88%
    03:00 +8°C° 0.2 mm 9 m/s 746 mmHg 88%
    04:00 +8°C° 0.2 mm 9 m/s 746 mmHg 87%
    05:00 +8°C° 0.2 mm 9 m/s 745 mmHg 85%
    06:00 +8°C° 0.2 mm 10 m/s 744 mmHg 84%
    07:00 +8°C° 0.4 mm 10 m/s 743 mmHg 84%
    08:00 +8°C° 0.4 mm 10 m/s 743 mmHg 83%
    09:00 +8°C° 0.4 mm 11 m/s 742 mmHg 82%
    10:00 +7°C° 1.2 mm 11 m/s 741 mmHg 82%
    11:00 +7°C° 1.2 mm 11 m/s 741 mmHg 81%
    12:00 +7°C° 1.2 mm 12 m/s 740 mmHg 81%
    13:00 +6°C° 1.2 mm 9 m/s 740 mmHg 84%
    14:00 +6°C° 1.2 mm 7 m/s 740 mmHg 86%
    15:00 +7°C° 1.2 mm 5 m/s 740 mmHg 89%
    16:00 +6°C° 0 mm 4 m/s 740 mmHg 89%
    17:00 +6°C° 0 mm 4 m/s 740 mmHg 89%
    18:00 +5°C° 0 mm 3 m/s 740 mmHg 90%
    19:00 +5°C° 0 mm 4 m/s 740 mmHg 89%
    20:00 +5°C° 0 mm 4 m/s 740 mmHg 89%
    21:00 +5°C° 0 mm 4 m/s 740 mmHg 89%
    22:00 +5°C° 0 mm 4 m/s 740 mmHg 89%
    23:00 +4°C° 0 mm 4 m/s 741 mmHg 89%
    Voir plus